CW8719 Villalvernia IT current weather conditions

sailwx.info

Wind from 135 at 0 knots gusting 0

Air temperature 1.7° C
Dewpoint -0.4° C

Last reported at 2019-Dec-07 07:48 UTC.
Time now 2019-Dec-07 08:36 UTC

Location: N 44°49' E 008°51'.
View on Google Maps.

See reports from other nearby stations

  
Tides and Currents Weather Stations Pressure Air Temp Water Temp Dewpoint Dewpoint Depression Visibility Wind Speed Wind Dir Waves Ship Positions
date/time (UTC)wind fromknots sea level pressurealtimeterstation pressurevisibilityair tempwater tempwave heightnotes
2019-Dec-07 07:48 135 0 gusting 0 1.7
2019-Dec-07 07:43 135 1.7
2019-Dec-07 07:38 135 1.7
2019-Dec-07 07:33 135 1.1
2019-Dec-07 07:18 090 1.7
2019-Dec-07 07:13 1.1
2019-Dec-07 07:08 1.1
2019-Dec-07 07:03 1.1
2019-Dec-07 06:48 045 1.7
2019-Dec-07 06:43 045 1.7
2019-Dec-07 06:38 045 1.7
2019-Dec-07 06:33 045 1.1
2019-Dec-07 06:18 135 1.1
2019-Dec-07 06:13 135 1.1
2019-Dec-07 06:08 135 1.1
2019-Dec-07 06:03 135 1.1
2019-Dec-07 05:48 135 0 gusting 1 1.7
2019-Dec-07 05:43 135 0 gusting 1 1.7
2019-Dec-07 05:38 135 1.7
2019-Dec-07 05:33 135 2.2
2019-Dec-07 05:18 315 2.2
2019-Dec-07 05:13 315 2.2
2019-Dec-07 05:08 315 2.2
2019-Dec-07 05:03 315 2.2
2019-Dec-07 04:48 315 2.8
2019-Dec-07 04:43 315 2.8
2019-Dec-07 04:38 315 2.8
2019-Dec-07 04:33 225 2.8
2019-Dec-07 04:18 225 2.8
2019-Dec-07 04:13 315 2.8
2019-Dec-07 04:08 315 2.8
2019-Dec-07 04:03 315 3.3
2019-Dec-07 03:48 315 3.3
2019-Dec-07 03:43 315 3.3
2019-Dec-07 03:38 225 3.3
2019-Dec-07 03:33 225 3.3
2019-Dec-07 03:18 229 3.3
2019-Dec-07 03:13 315 3.3
2019-Dec-07 03:08 3.3
2019-Dec-07 03:03 336 3.3
2019-Dec-07 02:48 3.3
2019-Dec-07 02:43 3.9
2019-Dec-07 02:38 3.9
2019-Dec-07 02:33 3.9
2019-Dec-07 02:18 338 1 gusting 2 3.9
2019-Dec-07 02:13 180 3.9
2019-Dec-07 02:08 180 3.9
2019-Dec-07 02:03 180 3.9
2019-Dec-07 01:48 180 3.9
2019-Dec-07 01:43 180 3.9
2019-Dec-07 01:38 180 3.9
2019-Dec-07 01:33 180 1 gusting 2 3.9
2019-Dec-07 01:18 315 3.9
2019-Dec-07 01:13 318 0 gusting 2 3.9
2019-Dec-07 01:08 3.9
2019-Dec-07 01:03 315 3.9
2019-Dec-07 00:48 315 3.9
2019-Dec-07 00:43 359 3.9
2019-Dec-07 00:38 318 4.4
2019-Dec-07 00:33 355 0 gusting 2 4.4
2019-Dec-07 00:18 4.4
2019-Dec-07 00:13 359 1 gusting 2 4.4
2019-Dec-07 00:08 4.4
2019-Dec-07 00:03 338 1 gusting 2 4.4
2019-Dec-06 23:48 5.0
2019-Dec-06 23:43 5.0
2019-Dec-06 23:38 045 5.0
2019-Dec-06 23:33 045 5.0
2019-Dec-06 23:18 5.0
2019-Dec-06 23:13 5.0
2019-Dec-06 23:08 5.0
2019-Dec-06 23:03 5.0
2019-Dec-06 22:48 5.6
2019-Dec-06 22:43 5.6
2019-Dec-06 22:38 5.6
2019-Dec-06 22:33 5.6
2019-Dec-06 22:18 135 5.6
2019-Dec-06 22:13 135 5.6
2019-Dec-06 22:08 135 5.6
2019-Dec-06 22:03 135 5.6
2019-Dec-06 21:48 135 5.6
2019-Dec-06 21:43 135 5.6
2019-Dec-06 21:38 135 5.6
2019-Dec-06 21:33 135 5.6
2019-Dec-06 21:18 135 5.6
2019-Dec-06 21:13 135 5.6
2019-Dec-06 21:08 135 5.6
2019-Dec-06 21:03 135 5.6
2019-Dec-06 20:48 135 5.6
2019-Dec-06 20:43 135 5.6
2019-Dec-06 20:38 135 5.6
2019-Dec-06 20:33 135 5.6
2019-Dec-06 20:18 135 5.6
2019-Dec-06 20:13 135 5.6
2019-Dec-06 20:08 135 5.6
2019-Dec-06 20:03 135 5.6
2019-Dec-06 19:48 135 5.6
2019-Dec-06 19:43 135 5.6
2019-Dec-06 19:38 135 5.6
2019-Dec-06 19:33 135 5.6
2019-Dec-06 19:18 135 5.6
2019-Dec-06 19:13 135 5.6
2019-Dec-06 19:08 135 5.6
2019-Dec-06 19:03 135 5.6
2019-Dec-06 18:48 135 5.6
2019-Dec-06 18:43 135 5.6
2019-Dec-06 18:38 135 5.6
2019-Dec-06 18:33 135 5.6
2019-Dec-06 18:18 135 5.6
2019-Dec-06 18:13 135 5.6
2019-Dec-06 18:08 135 5.6
2019-Dec-06 18:03 135 5.6
2019-Dec-06 17:48 315 5.6
2019-Dec-06 17:43 315 5.6
2019-Dec-06 17:38 315 5.6
2019-Dec-06 17:33 315 5.6
2019-Dec-06 17:18 315 5.6
2019-Dec-06 17:13 338 0 gusting 2 5.6
2019-Dec-06 17:08 338 0 gusting 2 5.6
2019-Dec-06 17:03 315 0 gusting 2 5.6
2019-Dec-06 16:48 180 0 gusting 0 5.6
2019-Dec-06 16:43 180 5.6
2019-Dec-06 16:38 180 5.6
2019-Dec-06 16:33 180 5.6
2019-Dec-06 16:18 158 5.6
2019-Dec-06 16:13 158 5.6
2019-Dec-06 16:08 158 5.6
2019-Dec-06 16:03 158 5.6
2019-Dec-06 15:48 135 0 gusting 2 5.6
2019-Dec-06 15:43 135 5.6
2019-Dec-06 15:38 135 5.6
2019-Dec-06 15:33 135 5.6
2019-Dec-06 15:18 135 5.6
2019-Dec-06 15:13 135 5.6
2019-Dec-06 15:08 135 6.1
2019-Dec-06 15:03 135 6.1
2019-Dec-06 14:48 045 5.6
2019-Dec-06 14:43 045 5.6
2019-Dec-06 14:38 5.6
2019-Dec-06 14:33 5.6
2019-Dec-06 14:18 5.6
2019-Dec-06 14:13 315 0 gusting 1 5.6
2019-Dec-06 14:08 335 0 gusting 1 5.6
2019-Dec-06 14:03 338 0 gusting 1 5.6
2019-Dec-06 13:48 5.6
2019-Dec-06 13:43 315 1 gusting 2 5.6
2019-Dec-06 13:38 5.6
2019-Dec-06 13:33 340 0 gusting 2 5.6
2019-Dec-06 13:18 336 0 gusting 2 5.0
2019-Dec-06 13:13 315 0 gusting 2 5.0
2019-Dec-06 13:08 315 0 gusting 2 5.0
2019-Dec-06 13:03 315 5.0
2019-Dec-06 12:48 5.0
2019-Dec-06 12:43 315 5.0
2019-Dec-06 12:38 337 1 gusting 2 5.0
2019-Dec-06 12:33 315 1 gusting 2 5.0
2019-Dec-06 12:18 225 2 gusting 4 5.0
2019-Dec-06 12:13 225 0 gusting 2 5.0
2019-Dec-06 12:08 225 0 gusting 2 5.0
2019-Dec-06 12:03 315 0 gusting 2 5.0
2019-Dec-06 11:48 315 0 gusting 2 4.4
2019-Dec-06 11:43 315 0 gusting 2 4.4
2019-Dec-06 11:38 320 2 gusting 2 4.4
2019-Dec-06 11:33 315 4.4
2019-Dec-06 11:18 316 2 gusting 2 4.4
2019-Dec-06 11:13 315 1 gusting 2 4.4
2019-Dec-06 11:08 315 3.9
2019-Dec-06 11:03 315 3.9
2019-Dec-06 10:48 316 1 gusting 4 3.3
2019-Dec-06 10:43 3.3
2019-Dec-06 10:38 3.3
2019-Dec-06 10:33 315 0 gusting 2 3.3
2019-Dec-06 10:18 2.8
2019-Dec-06 10:13 358 0 gusting 2 2.8
2019-Dec-06 10:08 2.8
2019-Dec-06 10:03 320 0 gusting 2 2.8
2019-Dec-06 09:48 340 2 gusting 4 2.8
2019-Dec-06 09:43 316 0 gusting 4 2.8
2019-Dec-06 09:38 358 2 gusting 4 2.8
2019-Dec-06 09:33 2.8
2019-Dec-06 09:18 358 1 gusting 2 2.2
2019-Dec-06 09:13 339 0 gusting 1 2.2
2019-Dec-06 09:08 315 0 gusting 0 2.2
2019-Dec-06 09:03 315 0 gusting 0 2.2
2019-Dec-06 08:48 225 1.7
2019-Dec-06 08:43 225 1.7
2019-Dec-06 08:38 225 1.7
2019-Dec-06 08:33 225 1.7
2019-Dec-06 08:18 225 1.1
2019-Dec-06 08:13 225 1.1
2019-Dec-06 08:08 225 1.1
2019-Dec-06 08:03 225 1.1
2019-Dec-06 07:48 315 1.1
2019-Dec-06 07:43 315 1.1
2019-Dec-06 07:38 315 1.1
2019-Dec-06 07:33 315 0.6
2019-Dec-06 07:18 315 0.6
2019-Dec-06 07:13 315 0.6
2019-Dec-06 07:08 315 0.6
2019-Dec-06 07:03 315 0.6
2019-Dec-06 06:48 315 0.6
2019-Dec-06 06:43 315 0.6
2019-Dec-06 06:38 0.6
2019-Dec-06 06:33 0.6
2019-Dec-06 06:18 0.6
2019-Dec-06 06:13 0.6
2019-Dec-06 06:08 0.6
2019-Dec-06 06:03 338 0 gusting 2 0.6
2019-Dec-06 05:48 315 0.6
2019-Dec-06 05:43 315 0.6
2019-Dec-06 05:38 315 0.6
2019-Dec-06 05:33 315 0.6
2019-Dec-06 05:18 315 0.6
2019-Dec-06 05:13 315 0.6
2019-Dec-06 05:08 315 0.6
2019-Dec-06 05:03 315 0.6
2019-Dec-06 04:48 315 0.6
2019-Dec-06 04:43 315 1.1
2019-Dec-06 04:38 315 1.1
2019-Dec-06 04:33 315 1.1
2019-Dec-06 04:18 180 0.6
2019-Dec-06 04:13 180 0.6
2019-Dec-06 04:08 180 1.1
2019-Dec-06 04:03 180 1.1
2019-Dec-06 03:48 180 0.6
2019-Dec-06 03:43 180 0.6
2019-Dec-06 03:38 180 0.6
2019-Dec-06 03:33 180 0.6
2019-Dec-06 03:18 180 -0.0
2019-Dec-06 03:13 180 -0.0
2019-Dec-06 03:08 177 -0.0
2019-Dec-06 03:03 135 -0.0
2019-Dec-06 02:48 135 -0.0
2019-Dec-06 02:43 135 -0.0
2019-Dec-06 02:38 135 -0.0
2019-Dec-06 02:33 135 -0.0
2019-Dec-06 02:18 135 -0.0
2019-Dec-06 02:13 135 -0.0
2019-Dec-06 02:08 135 -0.0
2019-Dec-06 02:03 135 -0.0
2019-Dec-06 01:48 135 -0.0
2019-Dec-06 01:43 135 0 gusting 0 -0.0
2019-Dec-06 01:38 135 0 gusting 0 -0.0
2019-Dec-06 01:33 135 -0.0
2019-Dec-06 01:18 135 -0.0
2019-Dec-06 01:13 135 0 gusting 1 -0.0
2019-Dec-06 01:08 135 0 gusting 1 -0.0
2019-Dec-06 01:03 135 -0.0
2019-Dec-06 00:48 135 -0.0
2019-Dec-06 00:43 135 -0.0
2019-Dec-06 00:38 135 -0.0
2019-Dec-06 00:33 180 -0.0
2019-Dec-06 00:18 135 0 gusting 1 -0.0
2019-Dec-06 00:13 135 -0.0
2019-Dec-06 00:08 135 -0.0
2019-Dec-06 00:03 135 -0.0
2019-Dec-05 23:48 180 0.6
2019-Dec-05 23:43 180 0.6
2019-Dec-05 23:38 180 0.6
2019-Dec-05 23:33 177 0.6
2019-Dec-05 23:18 135 0.6
2019-Dec-05 23:13 135 0.6
2019-Dec-05 23:08 135 0.6
2019-Dec-05 23:03 135 0.6
2019-Dec-05 22:48 135 0.6
2019-Dec-05 22:43 179 0 gusting 1 0.6
2019-Dec-05 22:38 135 0 gusting 0 0.6
2019-Dec-05 22:33 179 0 gusting 0 -0.0
2019-Dec-05 22:18 135 0 gusting 1 -0.0
2019-Dec-05 22:13 180 0 gusting 1 -0.0
2019-Dec-05 22:08 160 0 gusting 0 -0.0
2019-Dec-05 22:03 135 -0.0
2019-Dec-05 21:48 180 -0.0
2019-Dec-05 21:43 135 -0.0
2019-Dec-05 21:38 135 -0.0
2019-Dec-05 21:33 135 -0.0
2019-Dec-05 21:18 137 -0.0
2019-Dec-05 21:13 135 -0.0
2019-Dec-05 21:08 132 -0.0
2019-Dec-05 21:03 135 0 gusting 1 -0.0
2019-Dec-05 20:48 180 -0.0
2019-Dec-05 20:43 180 -0.0
2019-Dec-05 20:38 177 0 gusting 0 -0.0
2019-Dec-05 20:33 180 -0.0
2019-Dec-05 20:18 180 0.6
2019-Dec-05 20:13 138 0.6
2019-Dec-05 20:08 140 0 gusting 0 0.6
2019-Dec-05 20:03 135 0 gusting 0 0.6
2019-Dec-05 19:48 135 -0.0
2019-Dec-05 19:43 135 -0.0
2019-Dec-05 19:38 135 0.6
2019-Dec-05 19:33 135 0 gusting 1 0.6
2019-Dec-05 19:18 138 0 gusting 0 0.6
2019-Dec-05 19:13 137 0.6
2019-Dec-05 19:08 135 0.6
2019-Dec-05 19:03 158 0 gusting 1 0.6
2019-Dec-05 18:48 138 0.6
2019-Dec-05 18:43 176 0.6
2019-Dec-05 18:38 135 0.6
2019-Dec-05 18:33 178 0 gusting 1 0.6
2019-Dec-05 18:18 142 0 gusting 1 0.6
2019-Dec-05 18:13 159 0 gusting 0 0.6
2019-Dec-05 18:08 180 0 gusting 0 0.6
2019-Dec-05 18:03 180 0.6
2019-Dec-05 17:48 135 1.1
2019-Dec-05 17:43 135 1.1
2019-Dec-05 17:38 180 1.1
2019-Dec-05 17:33 135 1.1
2019-Dec-05 17:18 135 1.7
2019-Dec-05 17:13 135 1.7
2019-Dec-05 17:08 135 1.7
2019-Dec-05 17:03 135 1.7
2019-Dec-05 16:48 135 2.2
2019-Dec-05 16:43 139 0 gusting 1 2.2
2019-Dec-05 16:38 315 2.8
2019-Dec-05 16:33 315 2.8
2019-Dec-05 16:18 315 3.3
2019-Dec-05 16:13 315 3.3
2019-Dec-05 16:08 315 3.3
2019-Dec-05 16:03 315 3.9
2019-Dec-05 15:48 315 4.4
2019-Dec-05 15:43 315 0 gusting 0 4.4
2019-Dec-05 15:38 315 4.4
2019-Dec-05 15:33 315 4.4
2019-Dec-05 15:18 315 5.0
2019-Dec-05 15:13 315 5.0
2019-Dec-05 15:08 315 5.0
2019-Dec-05 15:03 315 0 gusting 1 5.0
2019-Dec-05 14:48 358 0 gusting 2 5.6
2019-Dec-05 14:43 334 0 gusting 1 5.6
2019-Dec-05 14:38 315 5.6
2019-Dec-05 14:33 315 5.6
2019-Dec-05 14:18 357 5.0
2019-Dec-05 14:13 315 0 gusting 1 5.0
2019-Dec-05 14:08 315 0 gusting 1 5.0
2019-Dec-05 14:03 5.0
2019-Dec-05 13:48 315 5.0
2019-Dec-05 13:43 338 0 gusting 2 5.0
2019-Dec-05 13:38 5.0
2019-Dec-05 13:33 358 1 gusting 2 5.0
2019-Dec-05 13:18 225 5.0
2019-Dec-05 13:13 227 1 gusting 2 5.0
2019-Dec-05 13:08 315 0 gusting 1 5.0
2019-Dec-05 13:03 315 5.0
2019-Dec-05 12:48 339 1 gusting 2 5.0
2019-Dec-05 12:43 315 1 gusting 2 5.0
2019-Dec-05 12:38 315 0 gusting 2 5.0
2019-Dec-05 12:33 315 0 gusting 2 5.0
2019-Dec-05 12:18 315 5.0
2019-Dec-05 12:13 311 0 gusting 1 5.0
2019-Dec-05 12:08 225 5.0
2019-Dec-05 12:03 315 5.0
2019-Dec-05 11:48 183 1 gusting 2 4.4
2019-Dec-05 11:43 315 4.4
2019-Dec-05 11:38 315 4.4
2019-Dec-05 11:33 313 0 gusting 2 4.4
2019-Dec-05 11:18 315 0 gusting 2 3.9
2019-Dec-05 11:13 315 1 gusting 2 3.9
2019-Dec-05 11:08 225 0 gusting 2 3.9
2019-Dec-05 11:03 229 0 gusting 2 3.9
2019-Dec-05 10:48 311 0 gusting 1 3.9
2019-Dec-05 10:43 225 0 gusting 1 3.9
2019-Dec-05 10:38 315 3.9
2019-Dec-05 10:33 315 0 gusting 1 3.9
2019-Dec-05 10:18 180 3.9
2019-Dec-05 10:13 180 3.3
2019-Dec-05 10:08 180 3.3
2019-Dec-05 10:03 180 3.3
2019-Dec-05 09:48 090 2.2
2019-Dec-05 09:43 090 2.2
2019-Dec-05 09:38 135 1.7
2019-Dec-05 09:33 180 1.7
2019-Dec-05 09:18 156 1.1
2019-Dec-05 09:13 135 1.1
2019-Dec-05 09:09 180 0 gusting 1 0.6
2019-Dec-05 09:03 135 0.6
2019-Dec-05 08:48 112 -0.0
2019-Dec-05 08:43 135 -0.0
2019-Dec-05 08:38 135 -0.0
2019-Dec-05 08:33 135 -0.6
2019-Dec-05 08:18 135 -0.6
2019-Dec-05 08:13 135 -0.6
2019-Dec-05 08:08 180 -0.6
2019-Dec-05 08:03 135 -0.6